When you browse on this site, cookies collect data to enhance your experience and personalize the content and advertising you see.
Visit our Privacy Policy to learn more. By continuing to use the site, you agree to this use of cookies and data.
  • In United Kingdom
  • List of Countries
  • For 7 days
  • Water Temperature
  • Satellite Maps
  • Weather Map
  • Weather Widgets
  • user-avatar
    Login

    Hourly Weather Madaniymekhnat

    Today, 26 June, Wednesday

    Time Temperature Precipitation Wind Pressure Humidity
    00:00 +28°C° 0 mm 2 mps 723 mmHg 26%
    01:00 +27°C° 0 mm 2 mps 723 mmHg 28%
    02:00 +27°C° 0 mm 2 mps 723 mmHg 30%
    03:00 +26°C° 0 mm 2 mps 723 mmHg 30%
    04:00 +26°C° 0 mm 2 mps 722 mmHg 30%
    05:00 +26°C° 0 mm 2 mps 722 mmHg 30%
    06:00 +28°C° 0 mm 2 mps 722 mmHg 27%
    07:00 +30°C° 0 mm 2 mps 723 mmHg 24%
    08:00 +32°C° 0 mm 2 mps 723 mmHg 20%
    09:00 +35°C° 0 mm 2 mps 722 mmHg 18%
    10:00 +36°C° 0 mm 1 mps 722 mmHg 16%
    11:00 +39°C° 0 mm 1 mps 722 mmHg 14%
    12:00 +40°C° 0 mm 1 mps 722 mmHg 13%
    13:00 +41°C° 0 mm 1 mps 722 mmHg 12%
    14:00 +41°C° 0 mm 1 mps 721 mmHg 11%
    15:00 +41°C° 0 mm 1 mps 721 mmHg 11%
    16:00 +41°C° 0 mm 2 mps 721 mmHg 11%
    17:00 +41°C° 0 mm 2 mps 721 mmHg 11%
    18:00 +39°C° 0 mm 2 mps 721 mmHg 14%
    19:00 +37°C° 0 mm 2 mps 721 mmHg 16%
    20:00 +34°C° 0 mm 1 mps 721 mmHg 19%
    21:00 +32°C° 0.1 mm 2 mps 721 mmHg 22%
    22:00 +31°C° 0.1 mm 2 mps 721 mmHg 26%
    23:00 +29°C° 0.1 mm 2 mps 721 mmHg 30%

    Tomorrow, 27 June, Thursday

    Time Temperature Precipitation Wind Pressure Humidity
    00:00 +29°C° 0 mm 2 mps 720 mmHg 31%
    01:00 +28°C° 0 mm 2 mps 720 mmHg 33%
    02:00 +27°C° 0 mm 2 mps 720 mmHg 35%
    03:00 +26°C° 0.1 mm 2 mps 720 mmHg 36%
    04:00 +26°C° 0.1 mm 2 mps 720 mmHg 38%
    05:00 +26°C° 0.1 mm 2 mps 720 mmHg 39%
    06:00 +27°C° 0.1 mm 2 mps 720 mmHg 36%
    07:00 +29°C° 0.1 mm 2 mps 720 mmHg 32%
    08:00 +31°C° 0.1 mm 2 mps 720 mmHg 29%
    09:00 +34°C° 0 mm 2 mps 720 mmHg 25%
    10:00 +36°C° 0 mm 2 mps 720 mmHg 22%
    11:00 +38°C° 0 mm 2 mps 720 mmHg 18%
    12:00 +39°C° 0 mm 2 mps 720 mmHg 16%
    13:00 +40°C° 0 mm 2 mps 720 mmHg 14%
    14:00 +41°C° 0 mm 2 mps 720 mmHg 12%
    15:00 +42°C° 0 mm 3 mps 720 mmHg 12%
    16:00 +41°C° 0 mm 5 mps 720 mmHg 13%
    17:00 +40°C° 0 mm 6 mps 720 mmHg 13%
    18:00 +37°C° 0 mm 5 mps 720 mmHg 17%
    19:00 +35°C° 0 mm 4 mps 720 mmHg 20%
    20:00 +31°C° 0 mm 3 mps 721 mmHg 24%
    21:00 +30°C° 0 mm 3 mps 721 mmHg 27%
    22:00 +29°C° 0 mm 3 mps 720 mmHg 30%
    23:00 +28°C° 0 mm 3 mps 720 mmHg 32%

    Day after tomorrow, 28 June, Friday

    Time Temperature Precipitation Wind Pressure Humidity
    00:00 +28°C° 0 mm 3 mps 720 mmHg 33%
    01:00 +27°C° 0 mm 2 mps 720 mmHg 34%
    02:00 +26°C° 0 mm 2 mps 719 mmHg 35%
    03:00 +26°C° 0 mm 2 mps 719 mmHg 35%
    04:00 +25°C° 0 mm 2 mps 719 mmHg 35%
    05:00 +25°C° 0 mm 2 mps 719 mmHg 35%
    06:00 +27°C° 0 mm 2 mps 719 mmHg 30%
    07:00 +30°C° 0 mm 2 mps 719 mmHg 26%
    08:00 +32°C° 0 mm 2 mps 720 mmHg 22%
    09:00 +34°C° 0 mm 1 mps 719 mmHg 19%
    10:00 +36°C° 0 mm 1 mps 719 mmHg 17%
    11:00 +39°C° 0 mm 1 mps 719 mmHg 15%
    12:00 +40°C° 0 mm 1 mps 719 mmHg 13%
    13:00 +41°C° 0 mm 1 mps 718 mmHg 11%
    14:00 +42°C° 0 mm 1 mps 718 mmHg 10%
    15:00 +42°C° 0 mm 1 mps 718 mmHg 9%
    16:00 +42°C° 0 mm 1 mps 718 mmHg 9%
    17:00 +42°C° 0 mm 1 mps 718 mmHg 9%
    18:00 +40°C° 0 mm 2 mps 718 mmHg 12%
    19:00 +37°C° 0 mm 3 mps 718 mmHg 15%
    20:00 +35°C° 0 mm 4 mps 718 mmHg 18%
    21:00 +34°C° 0 mm 4 mps 719 mmHg 22%
    22:00 +31°C° 0 mm 3 mps 719 mmHg 26%
    23:00 +30°C° 0 mm 2 mps 720 mmHg 30%

    29 June, Saturday

    Time Temperature Precipitation Wind Pressure Humidity
    00:00 +29°C° 0 mm 2 mps 719 mmHg 30%
    01:00 +29°C° 0 mm 2 mps 719 mmHg 31%
    02:00 +28°C° 0 mm 2 mps 719 mmHg 31%
    03:00 +28°C° 0 mm 3 mps 719 mmHg 31%
    04:00 +28°C° 0 mm 3 mps 719 mmHg 31%
    05:00 +27°C° 0 mm 3 mps 719 mmHg 32%
    06:00 +29°C° 0 mm 3 mps 719 mmHg 29%
    07:00 +31°C° 0 mm 2 mps 719 mmHg 26%
    08:00 +34°C° 0 mm 2 mps 719 mmHg 23%
    09:00 +36°C° 0 mm 2 mps 719 mmHg 21%
    10:00 +37°C° 0 mm 1 mps 719 mmHg 19%
    11:00 +40°C° 0 mm 1 mps 719 mmHg 17%
    12:00 +41°C° 0 mm 1 mps 719 mmHg 15%
    13:00 +42°C° 0 mm 1 mps 719 mmHg 14%
    14:00 +43°C° 0 mm 1 mps 718 mmHg 12%
    15:00 +42°C° 0 mm 1 mps 719 mmHg 12%
    16:00 +42°C° 0 mm 1 mps 719 mmHg 11%
    17:00 +42°C° 0 mm 2 mps 719 mmHg 11%
    18:00 +40°C° 0 mm 2 mps 719 mmHg 15%
    19:00 +37°C° 0 mm 3 mps 720 mmHg 18%
    20:00 +35°C° 0 mm 4 mps 720 mmHg 22%
    21:00 +33°C° 0 mm 3 mps 720 mmHg 25%
    22:00 +31°C° 0 mm 2 mps 720 mmHg 27%
    23:00 +30°C° 0 mm 1 mps 720 mmHg 29%

    30 June, Sunday

    Time Temperature Precipitation Wind Pressure Humidity
    00:00 +29°C° 0 mm 2 mps 719 mmHg 31%
    01:00 +28°C° 0 mm 2 mps 719 mmHg 32%
    02:00 +28°C° 0 mm 2 mps 718 mmHg 34%
    03:00 +27°C° 0 mm 2 mps 718 mmHg 35%
    04:00 +27°C° 0 mm 2 mps 718 mmHg 35%
    05:00 +27°C° 0 mm 2 mps 718 mmHg 35%
    06:00 +29°C° 0 mm 2 mps 719 mmHg 31%
    07:00 +31°C° 0 mm 2 mps 719 mmHg 28%
    08:00 +34°C° 0 mm 2 mps 719 mmHg 24%
    09:00 +37°C° 0 mm 2 mps 719 mmHg 21%
    10:00 +39°C° 0 mm 2 mps 719 mmHg 18%
    11:00 +41°C° 0 mm 2 mps 719 mmHg 16%
    12:00 +42°C° 0 mm 1 mps 719 mmHg 14%
    13:00 +43°C° 0 mm 1 mps 719 mmHg 12%
    14:00 +44°C° 0 mm 1 mps 719 mmHg 11%
    15:00 +45°C° 0 mm 2 mps 719 mmHg 10%
    16:00 +45°C° 0 mm 2 mps 719 mmHg 9%
    17:00 +45°C° 0 mm 2 mps 719 mmHg 9%
    18:00 +42°C° 0 mm 2 mps 719 mmHg 11%
    19:00 +39°C° 0 mm 2 mps 719 mmHg 13%
    20:00 +37°C° 0 mm 2 mps 719 mmHg 15%
    21:00 +36°C° 0 mm 2 mps 719 mmHg 17%
    22:00 +34°C° 0 mm 2 mps 719 mmHg 19%
    23:00 +32°C° 0 mm 2 mps 719 mmHg 22%

    1 July, Monday

    Time Temperature Precipitation Wind Pressure Humidity
    00:00 +31°C° 0 mm 2 mps 719 mmHg 23%
    01:00 +30°C° 0 mm 2 mps 719 mmHg 25%
    02:00 +30°C° 0 mm 3 mps 718 mmHg 26%
    03:00 +29°C° 0 mm 2 mps 718 mmHg 27%
    04:00 +29°C° 0 mm 2 mps 719 mmHg 27%
    05:00 +28°C° 0 mm 2 mps 719 mmHg 28%
    06:00 +31°C° 0 mm 2 mps 719 mmHg 24%
    07:00 +34°C° 0 mm 2 mps 719 mmHg 21%
    08:00 +37°C° 0 mm 2 mps 719 mmHg 18%
    09:00 +39°C° 0 mm 2 mps 719 mmHg 16%
    10:00 +41°C° 0 mm 2 mps 719 mmHg 14%
    11:00 +43°C° 0 mm 2 mps 719 mmHg 12%
    12:00 +45°C° 0 mm 2 mps 719 mmHg 11%
    13:00 +46°C° 0 mm 2 mps 719 mmHg 10%
    14:00 +47°C° 0 mm 2 mps 719 mmHg 9%
    15:00 +47°C° 0 mm 3 mps 719 mmHg 8%
    16:00 +48°C° 0 mm 4 mps 719 mmHg 8%
    17:00 +48°C° 0 mm 5 mps 719 mmHg 8%
    18:00 +45°C° 0 mm 5 mps 719 mmHg 12%
    19:00 +41°C° 0 mm 5 mps 720 mmHg 16%
    20:00 +37°C° 0 mm 5 mps 720 mmHg 20%
    21:00 +36°C° 0 mm 4 mps 720 mmHg 22%
    22:00 +35°C° 0 mm 3 mps 720 mmHg 24%
    23:00 +33°C° 0 mm 3 mps 721 mmHg 25%
    Show more